Haleyville, AL

1:06 AM CDT on April 30, 2017 (GMT -0500)
Haleyville

Weather History for K1M4 - February, 2012

Change the Weather History Date:

Saturday, February 11, 2012

  Actual Average (KJFX) Record (KJFX)
Temperature  
Mean Temperature 30 °F -  
Max Temperature 37 °F 54 °F 76 °F (1965)
Min Temperature 20 °F 27 °F 11 °F (1979)
Degree Days  
Heating Degree Days 36    
Moisture  
Dew Point 18 °F    
Average Humidity 66    
Maximum Humidity 93    
Minimum Humidity 38    
Precipitation  
Precipitation 0.00 in - - ()
Sea Level Pressure  
Sea Level Pressure 30.30 in    
Wind  
Wind Speed 11 mph (NNW)    
Max Wind Speed 22 mph    
Max Gust Speed 30 mph    
Visibility 10 miles    
Events Rain    
Averages and records for this station are not official NWS values.
T = Trace of Precipitation, MM = Missing Value Source: NWS Daily Summary

Daily Weather History Graph

Daily Weather History Graph

Search for Another Location

Airport or City:

Trip Planner

Search our weather history database for the weather conditions in past years. The results will help you decide how hot, cold, wet, or windy it might be!

Date:

Astronomy

Feb. 11, 2012 Rise Set
Actual Time 6:39 AM CST 5:29 PM CST
Civil Twilight 6:14 AM CST 5:55 PM CST
Nautical Twilight 5:44 AM CST 6:25 PM CST
Astronomical Twilight 5:15 AM CST 6:54 PM CST
Moon 10:01 PM CST (2/11) 8:36 AM CST (2/11)
Length of Visible Light 11h 41m
Length of Day
10h 49m
Waning Gibbous, 82% of the Moon is Illuminated
Feb 11
Waning Gibbous
Feb 14
Last Quarter
Feb 21
New
Feb 29
First Quarter
Mar 8
Full

Hourly Weather History & Observations

Time (CST) Temp. Windchill Dew Point Humidity Pressure Visibility Wind Dir Wind Speed Gust Speed Precip Events Conditions
12:25 AM 37.4 °F 30.8 °F 35.6 °F 93% 30.06 in 9.0 mi NW 9.2 mph - N/A   Overcast
12:38 AM 37.4 °F 32.1 °F 35.6 °F 93% 30.06 in 9.0 mi NW 6.9 mph - N/A   Overcast
12:56 AM 37.9 °F 32.1 °F 34.9 °F 89% 30.09 in 9.0 mi NW 8.1 mph - N/A   Overcast
1:20 AM 37.4 °F 31.4 °F 35.6 °F 93% 30.06 in 10.0 mi NW 8.1 mph - N/A   Overcast
1:56 AM 37.9 °F 32.1 °F 34.9 °F 89% 30.10 in 10.0 mi NW 8.1 mph - N/A   Overcast
2:30 AM 37.4 °F 33.8 °F 35.6 °F 93% 30.09 in 4.0 mi Variable 4.6 mph - 0.00 in Rain Rain
2:56 AM 34.9 °F 26.6 °F 32.0 °F 89% 30.16 in 10.0 mi NW 11.5 mph - 0.00 in   Overcast
3:56 AM 31.1 °F 20.5 °F 27.1 °F 85% 30.19 in 9.0 mi NNW 15.0 mph 26.5 mph N/A   Overcast
4:56 AM 30.0 °F 18.3 °F 26.1 °F 85% 30.21 in 9.0 mi NW 17.3 mph 23.0 mph N/A   Overcast
5:48 AM 28.4 °F 17.5 °F 23.0 °F 80% 30.21 in 10.0 mi NNW 13.8 mph 25.3 mph N/A   Overcast
5:56 AM 28.0 °F 15.7 °F 23.0 °F 81% 30.25 in 10.0 mi NNW 17.3 mph 25.3 mph N/A   Overcast
6:56 AM 26.1 °F 13.1 °F 16.2 °F 66% 30.27 in 10.0 mi NNW 17.3 mph 26.5 mph N/A   Overcast
7:56 AM 25.2 °F 10.4 °F 14.0 °F 63% 30.29 in 10.0 mi NNW 21.9 mph 29.9 mph N/A   Mostly Cloudy
8:09 AM 24.8 °F 10.3 °F 14.0 °F 64% 30.26 in 10.0 mi North 20.7 mph 29.9 mph N/A   Mostly Cloudy
8:56 AM 25.2 °F 11.6 °F 15.1 °F 66% 30.32 in 10.0 mi NNW 18.4 mph 24.2 mph N/A   Overcast
9:30 AM 26.6 °F 14.3 °F 12.2 °F 55% 30.31 in 10.0 mi North 16.1 mph 23.0 mph N/A   Mostly Cloudy
9:56 AM 25.2 °F 12.0 °F 13.1 °F 60% 30.35 in 10.0 mi NNW 17.3 mph 26.5 mph N/A   Mostly Cloudy
10:56 AM 28.0 °F 14.9 °F 12.0 °F 51% 30.38 in 10.0 mi North 19.6 mph 24.2 mph N/A   Mostly Cloudy
11:56 AM 28.0 °F 15.7 °F 11.1 °F 49% 30.38 in 10.0 mi NNW 17.3 mph 25.3 mph N/A   Mostly Cloudy
12:56 PM 30.0 °F 19.5 °F 12.0 °F 47% 30.38 in 10.0 mi North 13.8 mph 24.2 mph N/A   Mostly Cloudy
1:56 PM 30.0 °F 19.5 °F 12.0 °F 47% 30.40 in 10.0 mi NNW 13.8 mph 21.9 mph N/A   Mostly Cloudy
2:56 PM 29.1 °F 17.5 °F 13.1 °F 51% 30.40 in 10.0 mi NNW 16.1 mph 21.9 mph N/A   Mostly Cloudy
3:56 PM 30.0 °F 20.0 °F 10.0 °F 43% 30.41 in 10.0 mi NW 12.7 mph 18.4 mph N/A   Partly Cloudy
4:56 PM 29.1 °F 18.4 °F 6.1 °F 38% 30.42 in 10.0 mi NNW 13.8 mph 20.7 mph N/A   Clear
5:56 PM 26.1 °F 15.6 °F 6.1 °F 43% 30.43 in 10.0 mi NNW 11.5 mph 18.4 mph N/A   Clear
6:56 PM 25.2 °F 12.9 °F 5.0 °F 42% 30.44 in 10.0 mi NNW 15.0 mph - N/A   Clear
7:56 PM 24.1 °F 14.4 °F 5.0 °F 44% 30.47 in 10.0 mi NNW 9.2 mph - N/A   Clear
8:56 PM 23.0 °F 13.1 °F 8.1 °F 53% 30.49 in 10.0 mi NNW 9.2 mph - N/A   Clear
9:56 PM 22.1 °F 12.8 °F 9.1 °F 58% 30.50 in 10.0 mi NNW 8.1 mph - N/A   Clear
10:56 PM 22.1 °F 12.8 °F 9.1 °F 58% 30.52 in 10.0 mi NNW 8.1 mph - N/A   Clear
11:56 PM 20.1 °F 11.3 °F 9.1 °F 62% 30.51 in 10.0 mi North 6.9 mph - N/A   Clear